Date,TemperatureHighF,TemperatureAvgF,TemperatureLowF,DewpointHighF,DewpointAvgF,DewpointLowF,HumidityHigh,HumidityAvg,HumidityLow,PressureMaxIn,PressureMinIn,WindSpeedMaxMPH,WindSpeedAvgMPH,GustSpeedMaxMPH,PrecipitationSumIn
2013-4-1,86,74,68,71,67,62,90,78,47,30.01,29.90,19,2,19,0.44
2013-4-2,82,72,66,68,65,62,92,79,52,30.04,29.94,14,3,14,0.00
2013-4-3,81,75,68,70,68,65,90,78,61,30.02,29.94,21,4,21,0.00
2013-4-4,84,75,69,73,69,66,91,83,68,30.00,29.86,23,4,25,0.66
2013-4-5,72,68,64,69,65,62,92,90,82,29.95,29.78,16,3,18,0.10
2013-4-6,75,68,59,66,61,57,91,80,66,30.04,29.88,19,5,20,0.03
2013-4-7,76,72,69,65,64,62,85,74,66,30.10,29.97,18,5,18,0.02
2013-4-8,80,72,62,66,62,55,91,72,45,30.09,30.00,11,0,11,0.02
2013-4-9,79,74,66,68,66,63,91,78,65,30.10,30.00,18,4,19,0.01
2013-4-10,82,77,71,72,70,66,86,80,69,30.06,29.95,21,5,21,0.01
2013-4-11,83,78,75,73,72,70,87,81,71,29.97,29.85,24,8,25,0.02
2013-4-12,86,79,72,76,74,68,90,84,71,29.91,29.82,20,4,20,0.13
2013-4-13,85,77,73,75,72,69,90,86,70,29.93,29.83,12,1,12,0.04
2013-4-14,85,78,73,75,72,70,91,82,66,29.92,29.85,16,4,19,0.01
2013-4-15,87,78,70,76,72,67,90,84,63,30.01,29.88,21,3,21,0.01
2013-4-16,84,77,72,76,72,69,91,84,70,30.08,29.97,22,5,22,0.01
2013-4-17,81,77,73,71,69,68,88,78,66,30.07,29.97,18,4,18,0.01
2013-4-18,85,79,74,73,71,68,87,76,62,30.02,29.93,21,5,21,0.00
2013-4-19,86,81,77,74,72,69,84,76,60,30.00,29.91,24,6,24,0.01
2013-4-20,88,78,72,76,72,68,90,83,56,30.03,29.89,23,3,23,0.00
2013-4-21,83,76,72,74,71,68,90,83,67,30.05,29.94,19,4,19,0.00
2013-4-22,83,74,68,72,69,65,91,85,65,30.00,29.88,18,2,19,0.01
2013-4-23,80,74,68,70,66,62,92,77,63,30.05,29.91,22,6,22,0.01
2013-4-24,80,75,68,67,64,62,87,69,58,30.09,29.99,17,4,17,0.00
2013-4-25,80,75,69,65,63,61,80,68,57,30.16,30.03,21,4,21,0.01
2013-4-26,79,74,66,67,65,62,89,74,62,30.18,30.07,21,5,21,0.00
2013-4-27,79,76,70,68,65,61,81,70,55,30.17,30.03,22,6,22,0.01
2013-4-28,80,76,72,67,64,61,80,68,55,30.08,29.95,19,6,19,0.00
2013-4-29,82,77,74,72,68,63,83,75,67,29.99,29.89,21,4,21,0.00
2013-4-30,83,76,71,73,70,67,90,83,65,29.95,29.88,21,2,22,0.00